Flag for U.S.A. Weather past 2 weeks in Lafayette, Indiana, U.S.A.

Now
22 °F

Scattered clouds.


Feels Like: 9 °F
Forecast: 14 / 30 °F
Wind: 14 mph from Northwest

Location: Purdue University Airport

Current Time: Mar 4, 2015 at 10:35:08 AM

Latest Report: Mar 4, 2015 at 10:01 AM


Visibility: 10 mi

Pressure: 30.06 "Hg

Humidity: 85%

Dew point: 18 °F

Location of LafayetteLocation

Historic Weather in Lafayette — Graph

°F

Lafayette temperature yesterday

Maximum temperature yesterday: 39 °F (at 3:54 PM)
Minimum temperature yesterday: 25 °F (at 12:54 AM)
Average temperature yesterday: 32 °F

Past Weeks' High & Low Weather Summary

 TemperatureHumidityPressure
High39 °F (Mar 3, 3:54 PM)100% (Mar 2, 8:54 AM)30.77 "Hg (Mar 2, 8:54 AM)
Low-5 °F (Feb 20, 2:54 AM)35% (Feb 19, 2:54 PM)29.72 "Hg (Mar 3, 3:54 PM)
Average16 °F72%30.26 "Hg
* Reported Feb 17 8:54 AM — Mar 4 8:54 AM, Lafayette, Weather by CustomWeather, © 2015

Note: Actual official high and low records may vary slightly from our data, if they occured in-between our weather recording intervals... More about our weather records

Advertising

Lafayette weather history for previous 24 hours

 ConditionsComfort  
Time TempWeatherWind HumidityBarometerVisibility
8:54 AM
Wed, Mar 4
24 °FOvercast.10 mph84%30.05 "Hg10 mi
7:54 AM26 °FMostly cloudy.10 mph84%30.03 "Hg8 mi
6:54 AM29 °FOvercast.12 mph85%30.00 "Hg8 mi
5:54 AM30 °FOvercast.6 mph82%29.98 "Hg8 mi
4:54 AM30 °FClear.6 mph85%29.94 "Hg8 mi
3:54 AM31 °FPassing clouds.7 mph82%29.90 "Hg8 mi
2:54 AM32 °FClear.6 mph82%29.91 "Hg9 mi
1:54 AM33 °FMostly cloudy.7 mph82%29.91 "Hg10 mi
12:54 AM33 °FOvercast.7 mph88%29.90 "Hg10 mi
11:54 PM
Tue, Mar 3
33 °FOvercast.6 mph92%29.90 "Hg10 mi
10:54 PM34 °FOvercast.8 mph88%29.89 "Hg10 mi
9:54 PM35 °FOvercast.10 mph92%29.87 "Hg9 mi
8:54 PM35 °FOvercast.9 mph92%29.85 "Hg9 mi
7:54 PM35 °FOvercast.10 mph92%29.83 "Hg9 mi
6:54 PM36 °FOvercast.13 mph92%29.81 "Hg9 mi
6:04 PM37 °FOvercast.15 mph89%29.75 "Hg8 mi
5:54 PM37 °FLow clouds.13 mph93%29.77 "Hg8 mi
4:54 PM38 °FLow clouds.17 mph93%29.75 "Hg9 mi
3:54 PM39 °FFog.14 mph93%29.72 "Hg6 mi
2:54 PM38 °FLow clouds.13 mph93%29.73 "Hg7 mi
1:54 PM36 °FLight rain. Fog.12 mph97%29.74 "Hg4 mi
12:54 PM35 °FFog.9 mph92%29.78 "Hg5 mi
11:54 AM32 °FIce fog.7 mph92%29.78 "Hg2 mi
10:54 AM30 °FIce fog.9 mph92%29.85 "Hg4 mi
10:01 AM28 °FLight freezing rain. Ice fog.10 mph93%29.89 "Hg2 mi
Weather by CustomWeather, © 2015

See weather overviewHow to use our weather pages